RH
79 78 78 78 79 80 81 82 82 83 84 84 83 81 80 80 74 60 45 39 60 64 70 76 74 60 39 33 38 38 38 36 27 24 20 18 16 17 18 21 24 28 28 41 83
78 78 77 78 79 80 81 82 83 83 84 83 82 81 80 82 66 48 46 75 82 74 57 66 59 48 38 32 36 41 42 33 22 20 21 20 17 18 19 23 25 31 53 66 99
78 79 78 79 80 80 81 82 82 83 84 84 83 83 82 78 52 37 76 69 68 64 63 54 46 49 45 33 36 36 44 29 26 24 23 22 21 19 19 23 20 25 70 83 96
80 78 78 79 80 81 82 82 82 83 84 83 83 84 83 68 21 35 69 61 59 67 66 58 53 56 42 41 31 37 31 29 26 27 23 23 21 21 20 20 18 22 65 81 90
77 80 80 81 81 82 82 82 82 82 82 81 82 84 75 58 47 37 39 49 53 62 71 64 54 44 42 33 31 37 26 29 26 28 27 25 25 23 22 26 27 43 69 75 75
79 80 81 83 83 83 83 82 80 80 80 80 80 82 69 73 48 51 51 58 49 53 55 63 64 40 32 31 34 28 28 28 28 30 31 30 28 27 24 32 44 58 70 73 73
81 82 83 84 85 84 84 82 79 78 78 73 85 75 63 52 52 51 58 57 55 55 49 50 56 47 32 35 28 26 36 31 30 30 29 28 33 31 25 30 41 50 67 78 74
81 83 85 86 87 87 87 79 76 77 74 75 67 72 72 55 60 53 54 53 52 55 61 55 64 47 40 31 32 35 35 44 32 33 32 30 37 25 26 27 30 35 54 77 80
84 85 87 87 88 88 83 52 66 71 74 67 64 63 53 47 46 51 60 52 45 47 60 54 70 68 44 50 55 44 50 45 39 35 34 35 37 27 31 30 29 29 40 56 67
85 87 88 88 89 90 70 44 53 51 54 52 73 64 50 41 45 48 47 48 43 50 57 59 71 96 76 58 78 54 44 42 38 42 42 40 36 38 37 33 30 29 31 50 71
86 88 89 89 88 78 65 54 52 47 62 71 57 59 45 45 50 47 52 51 56 56 65 71 94 91 77 62 44 39 40 44 38 46 42 42 38 34 37 41 44 36 32 90 74
87 89 91 89 73 54 67 61 91 96 94 54 52 55 51 54 59 45 62 61 88 80 54 96 94 49 53 65 50 46 45 43 48 48 46 50 44 40 41 41 50 54 45 76 66
88 90 88 50 48 62 84 86 99 99 92 56 44 47 46 50 57 54 62 66 91 75 59 60 74 56 61 88 96 52 45 49 48 46 42 44 48 55 51 52 52 56 69 80 99
90 92 87 42 54 76 62 92 98 99 90 36 35 45 37 44 63 60 69 81 90 90 58 52 55 59 75 70 75 82 63 50 53 52 62 41 58 50 46 70 50 53 56 65 75
91 92 73 52 69 63 76 92 96 94 64 35 41 39 36 55 66 79 78 75 100 77 69 79 80 65 65 58 82 64 63 55 49 53 52 55 75 39 46 52 48 50 56 66 88
92 85 42 56 72 70 72 82 86 71 64 47 44 49 51 48 58 79 93 86 94 97 80 66 50 55 58 56 46 58 63 67 60 66 83 64 62 39 50 58 40 48 58 62 71
86 42 41 57 58 56 79 62 75 74 43 59 61 54 56 58 72 59 86 100 100 96 92 71 67 46 67 68 58 58 70 88 93 92 71 65 63 47 48 54 67 93 64 62 81
57 34 42 46 44 58 70 60 68 66 77 53 61 60 54 57 58 70 82 94 100 85 81 79 90 58 94 73 68 60 70 76 82 75 66 62 78 52 47 50 73 83 91 61 63
43 34 34 42 38 50 56 81 79 80 75 81 64 59 58 54 76 77 86 92 99 100 94 79 78 57 48 79 58 79 87 48 76 73 57 52 49 53 46 51 57 82 80 79 62
66 52 41 35 35 56 74 73 66 60 80 82 90 62 64 65 81 82 84 94 98 100 100 75 86 70 66 76 80 64 51 69 69 75 64 49 51 43 48 53 60 75 86 80 65
62 36 34 30 36 56 86 79 69 54 78 97 91 78 63 90 92 92 92 81 96 100 100 75 80 79 70 91 72 73 88 70 60 68 54 41 46 66 68 71 73 79 80 77 72
69 51 37 28 66 82 72 80 64 60 56 90 78 74 73 77 93 92 95 98 100 100 98 88 80 85 80 58 56 52 59 60 63 83 75 66 52 60 65 71 82 82 75 72 69
62 71 41 54 81 82 66 64 66 63 65 85 88 80 63 87 88 81 74 95 100 99 100 99 86 88 89 70 52 68 55 58 68 70 76 59 47 41 55 70 72 83 77 74 76
71 78 72 81 84 85 86 73 68 54 68 65 91 62 68 70 64 84 67 66 83 80 96 92 84 83 61 76 73 82 72 58 64 63 74 61 50 40 47 60 66 72 74 75 75
78 88 82 86 80 86 89 88 74 77 63 64 66 66 88 90 84 76 73 70 63 69 76 88 92 85 72 72 78 68 82 81 73 59 58 65 60 53 55 67 73 79 75 74 80
75 78 84 83 78 82 84 75 76 71 82 73 86 75 82 92 94 93 89 82 88 75 87 82 89 76 83 63 70 80 70 74 76 59 64 68 68 51 56 55 71 72 76 85 88
96 96 78 83 89 85 70 74 73 70 68 74 91 89 80 95 97 100 92 88 89 93 93 85 85 77 81 70 76 73 83 82 78 75 63 67 58 56 57 54 67 77 79 82 86
Wind_Speed
22 21 22 23 23 24 24 24 24 24 23 23 22 21 21 21 24 20 17 9 7 10 5 8 16 15 11 9 6 3 8 13 18 15 7 8 9 5 5 8 3 1 4 2 30
20 21 21 22 23 24 25 26 26 26 25 24 23 21 21 21 23 24 7 4 6 9 11 17 18 19 10 11 8 12 14 17 8 11 4 8 9 11 9 10 6 5 5 23 23
19 19 20 21 23 25 26 27 28 28 26 25 23 22 19 17 12 5 13 12 9 11 18 21 22 18 17 11 13 13 19 15 8 7 4 6 8 6 7 10 10 13 15 19 21
19 19 20 22 24 26 27 29 30 30 28 26 23 19 14 8 7 5 5 15 13 10 14 18 16 20 17 17 17 13 17 11 5 4 3 7 6 6 9 2 5 9 21 20 18
20 22 23 23 26 28 29 31 31 30 29 27 23 17 9 8 11 11 14 13 14 7 15 15 20 20 21 18 15 20 13 11 9 2 2 3 4 2 6 3 6 18 21 21 19
21 23 25 26 28 29 31 33 32 31 30 23 17 9 9 15 5 6 8 24 14 8 5 16 9 20 10 14 21 12 18 12 8 9 3 4 3 2 4 6 10 17 20 19 20
22 24 25 26 28 29 32 32 33 33 24 14 12 5 8 18 11 19 21 13 12 10 13 12 19 17 10 14 11 15 10 12 14 10 9 7 8 8 6 8 10 12 15 17 17
23 25 27 29 30 32 32 31 34 28 18 11 14 6 6 9 13 15 10 8 6 9 13 12 8 13 8 3 9 16 12 13 12 13 6 10 18 11 9 11 11 12 12 14 17
24 26 28 30 32 33 30 34 27 18 10 15 4 4 5 5 9 6 5 8 14 13 9 2 7 6 12 14 7 13 13 19 12 11 9 15 13 8 5 11 10 10 12 12 13
25 27 30 31 32 29 28 26 14 8 15 2 0 5 5 8 9 13 15 16 13 4 6 8 1 4 10 15 16 16 15 12 16 10 8 13 10 4 3 8 12 12 11 12 10
25 28 30 32 31 22 24 9 8 1 12 8 16 8 12 12 15 5 9 4 2 6 13 7 5 14 18 17 10 13 16 12 10 5 12 13 13 11 6 3 6 10 11 8 11
26 29 32 32 25 14 15 7 8 10 12 16 13 12 18 8 7 4 4 5 3 11 13 4 12 11 15 8 8 15 14 13 7 5 8 7 10 10 9 9 3 6 11 12 10
26 29 32 26 15 9 7 6 14 8 5 9 5 8 5 5 6 6 5 3 4 11 17 13 5 13 15 13 10 16 14 13 10 6 2 4 7 9 5 5 5 5 6 8 8
27 29 32 22 4 12 4 14 17 4 3 3 4 1 7 8 3 3 2 1 4 6 9 9 2 13 10 9 9 9 5 11 9 5 6 4 4 11 11 8 9 8 9 10 10
28 29 24 15 10 7 12 20 2 4 5 12 5 6 17 4 10 2 4 1 2 5 5 5 9 13 14 14 19 4 19 15 9 10 4 7 3 5 7 10 13 11 10 10 8
28 30 14 11 10 10 20 8 3 4 2 7 8 16 16 7 3 5 2 2 2 3 4 2 5 3 2 3 14 13 12 8 4 5 6 9 8 5 6 6 14 11 10 11 10
30 28 8 10 12 23 13 2 3 3 11 10 12 15 14 13 7 9 5 2 2 5 6 9 5 5 2 9 10 9 12 6 7 6 4 2 7 3 5 4 2 5 11 11 9
32 17 7 11 22 16 3 1 3 5 4 12 11 18 8 14 9 13 15 6 3 4 5 5 6 2 2 1 6 13 8 2 4 6 5 4 7 2 4 3 3 3 8 11 9
31 8 8 28 19 12 2 6 5 5 8 10 18 7 7 12 9 9 10 12 8 5 2 3 4 2 5 2 3 6 6 2 5 2 3 4 3 3 2 3 4 8 9 8 10
16 6 9 30 15 5 4 3 3 6 10 6 4 5 11 14 11 13 12 7 9 6 4 2 4 2 2 2 2 3 8 3 2 4 3 3 3 2 3 6 8 10 9 8 7
5 1 16 22 8 5 4 4 4 9 10 4 7 7 9 7 7 7 10 2 12 7 3 1 1 3 3 2 4 3 2 4 3 3 0 3 4 3 1 4 9 9 9 9 7
4 1 19 17 5 2 3 7 7 9 9 4 5 7 8 10 5 8 8 7 13 7 5 3 2 3 2 2 1 1 4 3 4 3 2 3 3 2 2 3 7 9 8 5 4
2 2 10 9 4 4 5 5 2 8 10 6 4 7 13 5 5 7 9 3 10 11 5 3 2 4 2 1 1 3 3 4 5 1 2 2 4 3 4 5 6 8 7 6 4
1 2 3 4 2 3 6 5 10 10 6 7 4 7 14 5 5 5 12 5 5 9 11 3 2 3 1 3 2 4 3 5 2 3 6 1 6 5 7 8 7 5 3 3 2
3 2 1 3 4 4 2 5 9 9 5 7 4 14 11 4 5 7 6 8 2 11 5 3 2 2 4 3 2 2 4 6 3 2 3 5 6 3 4 1 2 2 3 4 5
1 1 1 1 2 4 3 3 6 8 4 6 8 16 8 4 6 7 7 6 4 9 6 5 2 1 1 4 4 3 3 5 2 4 4 4 1 1 2 2 2 3 4 4 3
2 2 1 1 1 2 2 3 6 11 5 8 10 11 7 4 7 8 3 0 2 5 5 4 2 2 2 3 2 2 0 1 1 0 2 5 2 2 2 3 2 1 2 3 4
Wind_Direction
14 9 5 358 352 348 344 339 336 332 328 326 326 323 321 321 316 304 275 256 235 272 282 210 182 188 186 206 207 201 238 237 228 223 218 167 185 156 133 150 155 71 328 104 151
9 6 360 353 347 342 338 335 331 326 322 320 318 317 317 318 312 289 256 295 260 254 254 214 193 185 190 202 197 210 228 242 248 242 253 185 208 161 170 162 178 154 76 141 147
5 359 354 350 344 339 335 330 325 322 320 317 315 312 312 319 300 186 151 3 324 284 255 225 229 197 213 194 193 213 237 231 259 252 254 198 197 176 183 187 187 181 149 157 155
357 353 349 345 342 337 332 327 323 320 320 316 311 306 304 301 293 127 343 340 344 328 190 201 208 207 216 207 203 219 226 227 263 248 217 202 156 190 205 80 143 155 157 163 165
351 349 346 343 340 336 331 325 321 319 319 314 308 298 294 247 252 272 311 357 340 8 185 194 208 209 216 215 200 224 201 207 228 218 192 161 177 228 190 87 125 135 153 167 171
348 347 344 341 338 334 329 323 320 319 318 313 310 286 251 260 296 277 287 315 308 295 289 207 223 216 251 227 209 205 227 215 208 208 243 233 189 249 157 130 135 150 157 169 174
346 345 342 339 335 332 326 322 318 318 315 320 328 262 245 251 287 290 297 297 304 287 273 267 226 198 213 217 223 219 198 217 216 211 223 220 232 215 141 161 154 163 160 168 175
344 343 341 338 335 332 328 324 318 316 309 291 313 252 251 257 281 288 282 255 302 314 228 247 254 237 231 205 185 201 229 211 201 198 182 197 238 224 169 175 174 164 165 169 175
343 343 341 338 336 335 331 331 321 318 316 301 283 250 259 284 272 302 247 266 299 304 211 178 167 200 196 198 179 201 208 215 183 209 188 200 234 209 188 195 194 182 168 171 169
344 342 340 337 336 335 336 337 338 348 339 325 248 263 241 317 306 298 298 281 250 269 176 184 59 174 224 189 203 185 212 204 202 175 201 189 207 161 162 202 203 197 176 171 163
343 341 340 336 336 337 346 352 11 288 359 298 298 281 288 304 299 301 328 246 202 187 202 175 193 207 178 196 217 198 200 182 210 160 197 198 210 213 178 231 199 194 187 141 149
344 341 338 335 335 339 4 42 29 304 308 299 270 261 273 281 301 3 328 262 99 221 189 157 228 190 171 205 210 186 189 202 129 153 223 181 212 219 222 222 237 205 184 158 152
344 340 338 340 337 353 0 46 341 322 276 299 257 273 305 279 307 316 332 301 227 210 206 204 161 148 154 175 196 205 188 179 182 137 114 184 226 199 181 179 142 121 141 146 141
342 340 339 344 351 337 1 334 330 173 288 336 333 2 311 311 266 306 15 337 232 184 219 220 144 162 156 210 213 201 233 170 169 209 211 240 221 206 192 180 190 158 154 152 147
341 340 341 342 313 337 320 326 347 204 332 356 346 315 327 301 341 125 24 262 241 179 214 145 155 177 181 177 191 169 180 210 208 214 207 178 234 143 172 199 192 175 156 150 141
339 340 344 339 327 324 327 340 164 249 343 352 333 330 343 340 309 302 297 16 53 155 41 62 171 159 99 141 199 141 124 92 151 190 227 205 221 197 172 198 189 165 164 154 145
338 344 343 353 325 326 337 201 283 341 354 349 331 328 327 339 318 330 339 240 216 164 162 139 112 92 112 110 143 174 158 162 183 198 229 192 205 256 128 103 92 162 158 154 145
338 343 346 341 343 344 326 269 8 357 344 325 310 316 332 359 335 334 348 15 51 19 127 180 151 119 331 209 177 185 192 218 177 185 137 152 215 152 80 84 53 80 134 148 150
341 359 340 346 349 347 332 49 355 335 332 319 312 329 355 347 335 331 5 10 5 0 339 163 89 37 83 149 173 158 205 37 110 53 178 165 194 161 169 106 126 138 152 147 155
340 325 354 351 359 11 59 63 331 324 324 286 301 354 345 341 340 353 7 34 345 360 331 108 122 67 73 91 32 233 135 179 62 153 190 165 251 88 164 174 163 163 170 160 158
7 309 349 359 25 42 50 338 302 323 342 308 342 325 345 338 318 354 4 37 2 321 342 92 312 116 184 339 141 129 127 57 88 352 341 148 115 42 183 190 176 169 174 172 173
355 47 352 4 45 23 17 319 311 325 345 315 306 332 335 327 310 9 355 349 343 329 5 16 60 116 56 23 277 345 140 173 247 168 61 320 95 23 283 194 166 161 170 174 177
27 326 3 23 47 14 330 304 296 333 336 341 312 352 337 309 330 5 351 351 3 4 11 356 5 127 139 147 137 207 143 109 95 83 163 247 95 39 93 145 176 160 169 171 178
59 22 29 54 61 47 358 327 1 337 303 341 298 354 345 330 342 319 350 9 358 358 14 35 73 3 228 49 68 171 162 160 219 209 149 215 122 101 116 151 171 189 166 165 244
22 88 50 359 23 20 341 303 8 350 335 325 338 357 341 304 318 346 352 336 329 6 23 41 73 65 54 39 62 112 167 172 177 146 225 134 148 136 63 59 141 164 163 211 226
77 144 132 117 1 355 318 347 0 335 280 329 326 337 338 299 13 325 337 7 23 328 8 347 82 194 81 31 21 102 109 161 99 149 102 93 193 57 53 128 120 182 194 226 228
103 82 250 56 78 328 318 328 318 329 258 257 312 324 323 359 316 299 292 44 359 343 330 8 4 329 104 359 324 160 158 190 136 355 130 209 74 76 111 72 52 53 220 229 210